FW6045 Weather Reports


Display with metric or nautical units.
time (UTC)temp
F
wind
direction
speed
MPH
gust
MPH
rain 1hr
in
rain 24hr
in
rain mn
in
humidity
%
barometer
mb
20260510073056 61 219 5.0 9.0 0.00 0.05 0.00 71 1009.8
20260510071555 62 249 5.0 8.0 0.00 0.05 0.00 71 1009.8
20260510070106 62 227 4.0 7.0 0.00 0.05 0.00 71 1009.8
20260510064611 62 254 4.0 7.0 0.00 0.05 0.00 71 1009.9
20260510063057 62 235 3.0 4.0 0.00 0.05 0.00 71 1010.1
20260510061559 62 235 3.0 6.0 0.00 0.05 0.00 70 1010.1
20260510060058 62 232 5.0 9.0 0.00 0.05 0.00 69 1010.3
20260510054605 63 218 5.0 7.0 0.00 0.05 0.00 67 1010.2
20260510053105 64 217 6.0 9.0 0.00 0.05 0.00 67 1010.3
20260510051608 64 196 6.0 8.0 0.00 0.05 0.00 66 1010.3
20260510050059 63 232 5.0 7.0 0.00 0.05 0.00 66 1010.4
20260510044614 64 218 5.0 9.0 0.00 0.05 0.00 66 1010.4
20260510043102 64 227 3.0 6.0 0.00 0.05 0.00 65 1010.4
20260510041611 64 243 5.0 8.0 0.00 0.05 0.00 65 1010.1
20260510034605 64 244 6.0 10.0 0.00 0.05 0.05 66 1010.3
20260510033057 65 223 7.0 11.0 0.00 0.05 0.05 64 1010.3
20260510031608 66 242 7.0 11.0 0.00 0.05 0.05 63 1010.3
20260510030106 66 254 7.0 10.0 0.00 0.05 0.05 64 1010.1
20260510024557 66 233 7.0 11.0 0.00 0.05 0.05 63 1010.1
20260510023056 67 250 7.0 14.0 0.00 0.05 0.05 61 1009.9
20260510021555 68 240 9.0 13.0 0.00 0.05 0.05 59 1009.7
20260510020101 68 215 7.0 13.0 0.00 0.05 0.05 59 1009.4
20260510014604 69 248 8.0 13.0 0.00 0.05 0.05 57 1009.3
20260510013103 69 229 7.0 11.0 0.00 0.05 0.05 57 1009.2
20260510011606 69 238 6.0 10.0 0.00 0.05 0.05 56 1009.0
20260510010058 70 246 5.0 10.0 0.00 0.05 0.05 55 1008.7
20260510004557 71 242 5.0 10.0 0.00 0.05 0.05 53 1008.4
20260510003103 72 236 6.0 12.0 0.00 0.05 0.05 52 1008.2
20260510001557 73 231 8.0 15.0 0.00 0.05 0.05 50 1007.7
20260510000111 73 227 9.0 15.0 0.00 0.05 0.05 50 1007.5
20260509234621 74 213 8.0 18.0 0.00 0.05 0.05 48 1007.4
20260509233100 74 217 7.0 15.0 0.00 0.05 0.05 50 1007.4
20260509231612 74 205 9.0 17.0 0.00 0.05 0.05 49 1007.4
20260509230107 74 234 9.0 17.0 0.00 0.05 0.05 50 1007.3
20260509224603 74 226 6.0 15.0 0.00 0.05 0.05 51 1007.3
20260509223057 74 186 7.0 19.0 0.00 0.05 0.05 51 1007.3
20260509221559 74 157 6.0 20.0 0.00 0.05 0.05 52 1007.4
20260509220056 74 219 9.0 15.0 0.00 0.05 0.05 50 1007.4
20260509214600 74 219 9.0 17.0 0.00 0.05 0.05 50 1007.5
20260509213055 74 239 6.0 17.0 0.00 0.05 0.05 52 1007.4
20260509211601 73 221 13.0 21.0 0.00 0.05 0.05 51 1007.3
20260509210109 73 202 10.0 21.0 0.00 0.05 0.05 53 1007.5
20260509204601 73 196 9.0 19.0 0.00 0.05 0.05 54 1007.6
20260509203056 72 196 11.0 18.0 0.00 0.05 0.05 56 1007.4
20260509201602 72 200 12.0 20.0 0.00 0.05 0.05 57 1007.5
20260509200104 72 183 10.0 16.0 0.00 0.05 0.05 56 1007.7
20260509194556 71 164 11.0 20.0 0.00 0.05 0.05 58 1008.0
20260509193100 71 197 10.0 20.0 0.00 0.05 0.05 58 1008.1
20260509191558 70 193 10.0 18.0 0.00 0.05 0.05 59 1008.0
20260509190109 71 184 6.0 15.0 0.00 0.05 0.05 59 1008.1
20260509184600 70 284 5.0 15.0 0.00 0.05 0.05 61 1008.1
20260509183059 69 217 11.0 18.0 0.00 0.05 0.05 62 1008.2
20260509181556 69 197 9.0 17.0 0.00 0.05 0.05 63 1008.2
20260509180104 68 244 6.0 17.0 0.00 0.05 0.05 60 1008.3
20260509174600 68 288 9.0 14.0 0.00 0.05 0.05 62 1008.5
20260509173102 68 251 7.0 17.0 0.00 0.05 0.05 63 1008.4
20260509171559 67 240 6.0 21.0 0.00 0.05 0.05 63 1008.5
20260509170107 66 236 9.0 20.0 0.00 0.05 0.05 66 1008.5
20260509164557 66 184 7.0 12.0 0.00 0.05 0.05 66 1008.5
20260509163104 65 255 6.0 15.0 0.00 0.05 0.05 67 1008.5
20260509161559 65 210 8.0 17.0 0.00 0.05 0.05 69 1008.5
20260509160058 65 180 4.0 14.0 0.00 0.05 0.05 69 1008.6
20260509154608 64 172 6.0 11.0 0.00 0.05 0.05 73 1008.4
20260509153100 63 211 5.0 11.0 0.00 0.05 0.05 75 1008.3
20260509151608 62 238 7.0 11.0 0.00 0.05 0.05 77 1008.3
20260509150110 61 185 5.0 11.0 0.00 0.05 0.05 83 1008.2
20260509144602 60 146 7.0 12.0 0.00 0.05 0.05 84 1008.1
20260509143105 58 144 9.0 16.0 0.00 0.05 0.05 87 1008.1
20260509141558 57 135 8.0 13.0 0.00 0.05 0.05 93 1008.1
20260509140105 56 150 7.0 11.0 0.00 0.05 0.05 97 1008.1
20260509134558 54 140 7.0 10.0 0.00 0.05 0.05 97 1008.1
20260509133106 55 149 4.0 10.0 0.00 0.05 0.05 97 1008.1
20260509131556 54 131 4.0 8.0 0.00 0.05 0.05 97 1007.9
20260509130058 54 49 2.0 5.0 0.00 0.05 0.05 97 1007.8
20260509124601 54 129 4.0 8.0 0.00 0.05 0.05 97 1008.0
20260509123105 54 136 5.0 9.0 0.00 0.05 0.05 97 1008.0
20260509121602 53 127 4.0 8.0 0.00 0.05 0.05 97 1007.9
20260509120107 53 106 3.0 8.0 0.00 0.05 0.05 97 1007.9
20260509114606 53 115 5.0 8.0 0.00 0.05 0.05 97 1007.9
20260509113109 53 105 4.0 8.0 0.00 0.05 0.05 97 1007.7
20260509111558 53 116 5.0 8.0 0.01 0.05 0.05 97 1007.7
20260509104559 53 123 6.0 8.0 0.01 0.05 0.05 96 1007.6
20260509103058 53 86 5.0 8.0 0.01 0.05 0.05 96 1007.5
20260509101558 53 90 6.0 8.0 0.01 0.04 0.04 96 1007.7
20260509100106 53 105 3.0 6.0 0.01 0.04 0.04 96 1007.8
20260509094606 53 71 3.0 5.0 0.01 0.04 0.04 96 1007.8
20260509093058 53 74 2.0 4.0 0.01 0.04 0.04 95 1008.1
20260509091602 53 0 0.0 0.0 0.01 0.03 0.03 95 1008.2
20260509090120 53 0 0.0 4.0 0.01 0.03 0.03 95 1008.2
20260509084605 53 82 4.0 9.0 0.02 0.03 0.03 94 1007.9
20260509083058 54 78 4.0 8.0 0.03 0.03 0.03 94 1008.1
20260509081559 54 97 4.0 7.0 0.02 0.02 0.02 93 1008.3
20260509080111 54 80 2.0 7.0 0.02 0.02 0.02 92 1008.7
20260509074603 54 83 2.0 5.0 0.01 0.01 0.01 91 1008.7